sat.trackr.live / text

‹ back to catalog

STARLING 1

NORAD 57388 · 2023-100C

PAYLOAD ACTIVE UNKNOWN

§ Identity

Operator
Country
US
Launch date
2023-07-18
Launch site
RLLB
Launch vehicle
Mass (kg)
RCS (m²)

External: N2YO · Heavens-Above · Gunter

§ Orbital elements

Epoch: 2026-05-25T04:54:53.664192Z

Period
95.58 min
Inclination
99.5135°
Eccentricity
0.0005197
Mean motion
15.06584667 rev/d
Perigee alt
543.0 km
Apogee alt
550.2 km
Semi-major
6,924.8 km
B*
1.1364e-4
RAAN
158.1974°
Arg perigee
6.3294°
Mean anomaly
353.7992°
Rev number
15,644

§ Raw data

STARLING 11 57388U 23100C   26145.20478778  .00001592  00000+0  11364-3 0  99922 57388  99.5135 158.1974 0005197   6.3294 353.7992 15.06584667156442

JSON: /api/v1/satellites/57388 · /tle

For live sub-satellite position, see the globe view (requires WebGL).

§ Visibility from observer

Set your observer location to see the next 7 days of passes ≥ 10°. The values pass through the URL so the page stays shareable.

No JS? Fill the form by hand. The geolocation button needs JavaScript.